Home   Weather   Barrie   Past weeks
Flag for Canada

Past Weather in Barrie, Ontario, Canada — Yesterday and Last 2 Weeks

Now
32 °F

Light snow. Overcast.


Feels Like: 20 °F
Forecast: 37 / 29 °F
Wind: 18 mph from Northwest

Location: Borden

Current Time: Apr 10, 2020 at 6:02:32 am

Latest Report: Apr 10, 2020 at 5:33 am


Visibility: 2 mi

Pressure: 29.43 "Hg

Humidity: 87%

Dew Point: 28 °F

Location of BarrieLocation

Past Weather in Barrie — Graph

°F

Barrie Temperature Yesterday

Maximum temperature yesterday: 45 °F (at 4:00 pm)
Minimum temperature yesterday: 32 °F (at 5:49 am)
Average temperature yesterday: 37 °F

High & Low Weather Summary for the Past Weeks

 TemperatureHumidityPressure
High57 °F (Mar 29, 4:00 pm)100% (Mar 29, 6:00 am)30.08 "Hg (Mar 29, 6:00 am)
Low25 °F (Mar 27, 11:00 pm)46% (Apr 9, 4:00 pm)29.37 "Hg (Apr 9, 7:31 am)
Average39 °F84%29.71 "Hg
* Reported Mar 26 5:00 am — Apr 10 5:03 am, Barrie. Weather by CustomWeather, © 2020

Note: Actual official high and low records may vary slightly from our data, if they occured in-between our weather recording intervals... More about our weather records

Barrie Weather History for the Previous 24 Hours

Scroll right to see more
 ConditionsComfort  
Time TempWeatherWind HumidityBarometerVisibility
5:03 am
Fri, Apr 10
32 °FLight snow. Overcast.13 mph87%29.42 "Hg7 mi
4:37 am32 °FLight snow. Overcast.17 mph87%29.41 "Hg4 mi
4:19 am30 °FLight snow. Ice fog.14 mph93%29.41 "Hg2 mi
4:00 am32 °FLight snow. Dense fog.17 mph87%29.42 "Hg2 mi
3:40 am32 °FLight snow. Light fog.14 mph87%29.40 "Hg5 mi
3:18 am30 °FLight snow. Ice fog.14 mph93%29.40 "Hg2 mi
3:17 am30 °FLight snow. Overcast.14 mph93%29.40 "Hg2 mi
2:57 am30 °FLight snow. Ice fog.9 mph100%29.39 "Hg1 mi
2:40 am30 °FLight snow. Ice fog.16 mph93%29.39 "Hg1 mi
2:23 am32 °FLight snow. Fog.14 mph87%29.39 "Hg2 mi
2:00 am32 °FMostly cloudy.12 mph93%29.41 "Hg9 mi
1:55 am32 °FMostly cloudy.14 mph93%29.38 "Hg9 mi
1:43 am32 °FLight snow. Passing clouds.12 mph93%29.39 "Hg1 mi
1:34 am32 °FLight snow. Dense fog.16 mph87%29.39 "Hg1 mi
1:11 am34 °FLight snow. Overcast.16 mph81%29.39 "Hg9 mi
1:00 am32 °FPassing clouds.16 mph87%29.41 "Hg9 mi
12:50 am32 °FOvercast.15 mph93%29.39 "Hg9 mi
12:21 am32 °FLight snow. Fog.12 mph93%29.39 "Hg2 mi
12:17 am34 °FMostly cloudy.14 mph87%29.38 "Hg9 mi
12:01 am34 °FMostly cloudy.17 mph87%29.38 "Hg9 mi
11:29 pm
Thu, Apr 9
32 °FPassing clouds.12 mph93%29.39 "Hg9 mi
11:23 pm32 °FLight freezing rain. Passing clouds.10 mph100%29.39 "Hg9 mi
11:03 pm32 °FLight snow. Dense fog.9 mph100%29.40 "Hg1 mi
10:29 pm34 °FLight snow. Overcast.10 mph87%29.39 "Hg9 mi
10:19 pm34 °FOvercast.12 mph87%29.39 "Hg9 mi
10:00 pm36 °FLight snow. Overcast.12 mph75%29.41 "Hg9 mi
9:44 pm36 °FLight snow. Overcast.12 mph70%29.39 "Hg9 mi
9:00 pm37 °FOvercast.12 mph60%29.41 "Hg9 mi
8:00 pm37 °FPassing clouds.14 mph60%29.40 "Hg9 mi
7:02 pm39 °FMostly cloudy.20 mph56%29.38 "Hg9 mi
6:00 pm43 °FScattered clouds.14 mph46%29.39 "Hg9 mi
5:00 pm43 °FPartly sunny.17 mph49%29.39 "Hg9 mi
4:00 pm45 °FPartly sunny.18 mph46%29.40 "Hg9 mi
3:00 pm43 °FPartly sunny.22 mph53%29.42 "Hg9 mi
2:00 pm43 °FMostly cloudy.20 mph53%29.41 "Hg9 mi
1:00 pm41 °FPartly sunny.16 mph57%29.40 "Hg9 mi
12:00 pm43 °FMostly cloudy.15 mph57%29.39 "Hg9 mi
11:00 am43 °FPartly sunny.17 mph66%29.39 "Hg9 mi
10:00 am39 °FPassing clouds.17 mph87%29.37 "Hg9 mi
9:00 am36 °FPassing clouds.7 mph93%29.39 "Hg9 mi
8:00 am34 °FScattered clouds.No wind100%29.39 "Hg9 mi
7:31 am34 °FScattered clouds.No wind100%29.37 "Hg9 mi
7:16 am34 °FLow clouds.No wind100%29.38 "Hg9 mi
6:41 am34 °FLow clouds.2 mph100%29.38 "Hg9 mi
6:40 am32 °FLight freezing rain. Low clouds.3 mph100%29.38 "Hg9 mi
6:10 am32 °FLight freezing rain. Low clouds.7 mph100%29.39 "Hg1 mi
Weather by CustomWeather, © 2020

See weather overview

Advertising